EST,Max TemperatureF,Mean TemperatureF,Min TemperatureF,Max Dew PointF,MeanDew PointF,Min DewpointF,Max Humidity, Mean Humidity, Min Humidity, Max Sea Level PressureIn, Mean Sea Level PressureIn, Min Sea Level PressureIn, Max VisibilityMiles, Mean VisibilityMiles, Min VisibilityMiles, Max Wind SpeedMPH, Mean Wind SpeedMPH, Max Gust SpeedMPH,PrecipitationIn, CloudCover, Events, WindDirDegrees
2013-2-1,31,20,9,28,9,-1,92,67,41,30.42,30.22,29.87,10,7,0,25,7,40,0.09,4,Fog-Snow,284
2013-2-2,31,23,14,30,23,7,100,84,67,30.36,30.10,30.00,10,3,0,10,3,17,0.17,8,Fog-Rain-Snow,227
2013-2-3,30,27,24,27,24,19,92,84,75,30.17,30.01,29.91,10,7,1,15,5,22,0.02,8,Snow,270
2013-2-4,47,35,22,31,22,18,92,66,39,30.14,30.02,29.88,10,10,10,14,3,24,T,6,Rain,238
2013-2-5,54,47,40,36,32,26,73,62,50,30.00,29.91,29.88,10,10,10,15,5,23,T,7,Rain,244
2013-2-6,51,42,32,31,28,26,85,62,39,30.24,30.17,30.04,10,10,7,13,3,21,0.00,2,,325
2013-2-7,62,49,36,36,30,27,70,50,29,30.17,30.05,29.90,10,10,10,8,3,13,0.00,3,,87
2013-2-8,49,41,33,43,34,25,92,74,56,30.30,30.02,29.83,10,9,4,16,7,28,0.15,8,Rain,284
2013-2-9,46,37,27,24,19,15,81,56,31,30.41,30.33,30.22,10,10,10,7,2,13,0.00,2,,71
2013-2-10,58,46,34,42,26,15,89,55,21,30.22,30.10,29.89,10,10,6,9,3,24,0.20,5,Rain,131
2013-2-11,59,50,41,50,35,19,96,64,31,30.10,29.96,29.88,10,10,10,17,7,32,0.01,3,Rain,229
2013-2-12,53,43,32,26,23,19,69,49,29,30.18,30.07,29.89,10,9,0,9,2,14,0.00,0,,236
2013-2-13,44,38,31,35,30,20,92,65,37,29.96,29.80,29.69,10,8,2,15,4,23,0.12,8,Rain-Snow,327
2013-2-14,53,41,29,34,30,28,100,72,44,30.03,29.98,29.93,10,9,5,13,4,23,0.00,5,,216
2013-2-15,42,37,31,36,31,25,92,77,62,30.12,30.07,30.00,10,8,2,15,3,23,0.04,6,Rain-Snow,312
2013-2-16,33,27,21,25,18,9,88,68,47,30.11,30.04,29.99,10,8,0,14,5,21,0.02,5,Fog-Snow,299
2013-2-17,33,25,17,16,11,5,80,55,29,30.26,30.16,30.07,10,8,2,14,4,20,T,6,Snow,291
2013-2-18,57,41,25,29,20,8,55,43,30,30.25,30.11,29.86,10,10,10,14,6,23,0.00,1,,176
2013-2-19,50,39,28,36,28,14,92,64,36,30.13,29.92,29.82,10,9,4,17,11,33,0.17,5,Rain,241
2013-2-20,36,28,20,15,13,10,68,55,41,30.27,30.22,30.13,10,10,10,15,5,24,0.00,2,,288
2013-2-21,40,29,18,25,16,12,80,57,34,30.34,30.21,30.06,10,10,6,10,4,18,0.14,2,Rain,54
2013-2-22,60,45,30,45,36,26,100,79,57,30.09,29.97,29.91,10,7,2,12,4,21,0.17,6,Rain,105
2013-2-23,53,45,37,45,37,27,89,72,54,29.97,29.92,29.87,10,10,10,10,4,14,0.00,6,,289
2013-2-24,48,38,27,25,22,19,78,56,34,30.14,30.06,29.94,10,10,10,12,4,17,0.00,0,,304
2013-2-25,50,39,27,23,21,19,75,54,32,30.13,30.03,29.86,10,10,10,12,6,18,0.00,0,,46
2013-2-26,59,49,39,48,41,21,86,65,44,29.83,29.52,29.39,10,7,1,17,7,32,0.44,7,Rain-Thunderstorm,174
2013-2-27,42,37,32,36,32,30,96,86,76,29.81,29.74,29.59,10,6,1,14,6,26,0.11,8,Rain-Snow,233
2013-2-28,33,32,30,30,28,26,100,89,78,29.96,29.83,29.74,10,5,1,13,6,22,0.06,8,Rain-Snow,242